Regional Weather Roundup
Issued by NWS

Home | Current Version | Previous Version | Text Only | Print | Product List | Glossary On
Versions: 1 2 3 4 5 6 7 8 9 10 11 12 13 14 15 16 17 18 19 20 21 22 23 24 25 26 27 28 29 30 31 32 33 34 35 36 37 38 39 40 41 42 43 44 45 46 47 48 49 50
000
ASUS43 KLMK 212002
RWRKY
KENTUCKY REGIONAL WEATHER ROUNDUP
NATIONAL WEATHER SERVICE LOUISVILLE KY
400 PM EDT SAT OCT 21 2017

NOTE "FAIR" INDICATES FEW OR NO CLOUDS BELOW 12,000 FEET
WITH NO SIGNIFICANT WEATHER AND/OR OBSTRUCTIONS TO VISIBILITY.

KYZ001>023-026-027-061>063-070>075-212100-
WESTERN AND SOUTH CENTRAL KENTUCKY

CITY           SKY/WX    TMP DP  RH WIND       PRES   REMARKS
PADUCAH        SUNNY     81  53  37 S10       30.08F
HENDERSON      CLOUDY    77  57  50 S13       30.13F
OWENSBORO      MOSUNNY   75  53  46 SE13      30.14F
HOPKINSVILLE   SUNNY     77  52  41 S3        30.16S
BOWLING GREEN  MOSUNNY   76  54  46 S9        30.19F
GLASGOW        NOT AVBL
$$

KYZ024-025-028>034-038-045-046-053-212100-
NORTH CENTRAL KENTUCKY

CITY           SKY/WX    TMP DP  RH WIND       PRES   REMARKS
LOUISVILLE/SDF PTSUNNY   76  50  40 S9        30.19F
LOUISVILLE/LOU CLOUDY    75  52  44 S7        30.20F
FORT KNOX      CLOUDY    75  48  38 S9        30.18F
$$

KYZ035>037-039>044-047>052-055>060-089>105-212100-
NORTHEAST KENTUCKY

CITY           SKY/WX    TMP DP  RH WIND       PRES   REMARKS
LEXINGTON      MOSUNNY   76  45  33 S8        30.23F
COVINGTON      PTSUNNY   72  49  44 S8        30.22S
FRANKFORT      MOSUNNY   76  44  32 S8        30.21F
$$

KYZ054-064>069-076>088-106>120-212100-
SOUTHEAST KENTUCKY

CITY           SKY/WX    TMP DP  RH WIND       PRES   REMARKS
JACKSON        SUNNY     75  51  43 CALM      30.27S
LONDON         SUNNY     76  44  32 S8        30.25F
SOMERSET       NOT AVBL
MIDDLESBORO    CLOUDY    76  50  39 CALM      30.26F
MONTICELLO     CLOUDY    77  50  38 VRB6      30.25S
$$




USA.gov is the U.S. government's official web portal to all federal, state and local government web resources and services.